Voltar ao catálogo

HELIOS 1B

AtivoMilitarSSO
NORAD 25977·PAYLOAD·🇫🇷 France

Lançado Dec 3, 1999 de Guiana Space Centre

Loading…

Próximas Passagens (próximas 24 horas)

TLE

AtualizadoSource: Space-Track

Época: Sep 14, 2026, 04:55 UTC

1 25977U 99064A   26257.20487973  .00000961  00000-0  11052-3 0  9998
2 25977  98.1515 164.8855 0001903 118.7774 241.3633 14.88198979713294

Acompanhe HELIOS 1B em tempo real com AllMySat

Download on the App Store